Location: Arbon
(43.0005°N, 0.7472°E)
Time: 03:01:23
(UTC+00:00)

Cosmos 968 Rocket - Pass Details

Date: 07 August 2020
Orbit: 740 x 772 km, 74.0° (Epoch: 27 September)

Event Time Altitude Azimuth Distance (km) Brightness Sun altitude
Exits shadow 00:19:11 53° 7° (N) 910 4.1 -30.5°
Drops below altitude 10° 00:23:05 10° 18° (NNE) 2,262 6.8 -30.5°
Sets 00:25:28 0° 20° (NNE) 3,192 7.8 -30.4°
